START_TIME,STEP,MOV.,M15,t_acc.,M20,t_acc.
1981-08-29 00:00:44.570 ,6,0,0.,24.0,0.,24.0
1981-08-29 00:01:08.570 ,7,1,0.,24.0,0.,24.0
1981-08-29 00:01:32.570 ,7,0,0.,24.0,0.,24.0
1981-08-29 00:01:56.570 ,7,1,0.,24.0,0.,24.0
1981-08-29 00:02:20.570 ,6,1,0.,24.0,0.,24.0
1981-08-29 00:02:44.570 ,5,1,0.,24.0,0.,24.0
1981-08-29 00:03:08.570 ,4,1,0.,24.0,0.,24.0
1981-08-29 00:03:32.570 ,3,1,0.,24.0,0.,24.0
1981-08-29 00:03:56.570 ,2,1,0.,24.0,0.,24.0
1981-08-29 00:04:20.570 ,1,1,0.,24.0,0.,24.0
1981-08-29 00:04:44.570 ,0,1,0.,24.0,0.,24.0
1981-08-29 00:05:08.570 ,0,1,0.,24.0,0.,24.0
1981-08-29 00:05:32.570 ,1,1,0.,24.0,0.,24.0
1981-08-29 00:05:56.570 ,2,1,0.,24.0,0.,24.0
1981-08-29 00:06:20.570 ,3,1,0.,24.0,0.,24.0
1981-08-29 00:06:44.570 ,4,1,0.,24.0,0.,24.0
1981-08-29 00:07:08.570 ,5,1,0.,24.0,0.,24.0
1981-08-29 00:07:32.570 ,6,1,0.,24.0,0.,24.0
1981-08-29 00:07:56.570 ,7,1,0.,24.0,0.,24.0
1981-08-29 00:08:20.570 ,7,1,0.,24.0,0.,24.0
1981-08-29 00:08:44.570 ,7,0,0.,24.0,0.,24.0
1981-08-29 00:09:08.570 ,6,1,0.,24.0,0.,24.0
1981-08-29 00:09:32.570 ,6,0,0.,24.0,0.,24.0
1981-08-29 00:09:56.570 ,5,1,0.,24.0,0.,24.0
1981-08-29 00:10:20.570 ,5,0,0.,24.0,0.,24.0
1981-08-29 00:10:44.570 ,4,1,0.,24.0,0.,24.0
1981-08-29 00:11:08.570 ,4,0,0.,24.0,0.,24.0
1981-08-29 00:11:32.570 ,3,1,0.,24.0,0.,24.0
1981-08-29 00:11:56.570 ,3,0,0.,24.0,0.,24.0
1981-08-29 00:12:20.570 ,2,1,0.,24.0,0.,24.0
1981-08-29 00:12:44.570 ,2,0,0.,24.0,0.,24.0
1981-08-29 00:13:08.570 ,1,1,0.,24.0,0.,24.0
1981-08-29 00:13:32.570 ,1,0,0.,24.0,0.,24.0
1981-08-29 00:13:56.560 ,0,1,0.,24.0,0.,24.0
1981-08-29 00:14:20.560 ,0,0,0.,24.0,0.,24.0
1981-08-29 00:14:44.560 ,0,1,0.,24.0,0.,24.0
1981-08-29 00:15:08.560 ,0,0,0.,24.0,0.,24.0
1981-08-29 00:15:32.560 ,1,1,0.,24.0,0.,24.0
1981-08-29 00:15:56.560 ,1,0,0.,24.0,0.,24.0
1981-08-29 00:16:20.560 ,2,1,0.,24.0,0.,24.0
1981-08-29 00:16:44.560 ,0,0,,0,,0
1981-08-29 00:17:08.560 ,3,1,0.,24.0,0.,24.0
1981-08-29 00:17:32.560 ,3,0,0.,24.0,0.,24.0
1981-08-29 00:17:56.560 ,4,1,0.,24.0,0.,24.0
1981-08-29 00:18:20.560 ,4,0,0.,24.0,0.,24.0
1981-08-29 00:18:44.560 ,5,1,0.,24.0,0.,24.0
1981-08-29 00:19:08.560 ,5,0,0.,24.0,0.,24.0
1981-08-29 00:19:32.560 ,6,1,0.,24.0,0.,24.0
1981-08-29 00:19:56.560 ,6,0,0.,24.0,0.,24.0
1981-08-29 00:20:20.560 ,7,1,0.,24.0,0.,24.0
1981-08-29 00:20:44.560 ,7,0,0.,24.0,0.,24.0
1981-08-29 00:21:08.560 ,7,1,0.,24.0,0.,24.0
1981-08-29 00:21:32.560 ,6,1,0.,24.0,0.,24.0
1981-08-29 00:21:56.560 ,5,1,0.,24.0,0.,24.0
1981-08-29 00:22:20.560 ,4,1,0.,24.0,0.,24.0
1981-08-29 00:22:44.560 ,3,1,0.,24.0,0.,24.0
1981-08-29 00:23:08.560 ,2,1,0.,24.0,0.,24.0
1981-08-29 00:23:32.560 ,1,1,0.,24.0,0.,24.0
1981-08-29 00:23:56.560 ,0,1,0.,24.0,0.,24.0
1981-08-29 00:24:20.560 ,0,1,0.,24.0,0.,24.0
1981-08-29 00:24:44.560 ,1,1,0.,24.0,0.,24.0
1981-08-29 00:25:08.560 ,2,1,0.,24.0,0.,24.0
1981-08-29 00:25:32.560 ,3,1,0.,24.0,0.,24.0
1981-08-29 00:25:56.560 ,4,1,0.,24.0,0.,24.0
1981-08-29 00:26:20.560 ,5,1,0.,24.0,0.,24.0
1981-08-29 00:26:44.560 ,6,1,0.,24.0,0.,24.0
1981-08-29 00:27:08.560 ,7,1,0.,24.0,0.,24.0
1981-08-29 00:27:32.560 ,7,1,0.,24.0,0.,24.0
1981-08-29 00:27:56.560 ,7,0,0.,24.0,0.,24.0
1981-08-29 00:28:20.560 ,6,1,0.,24.0,0.,24.0
1981-08-29 00:28:44.560 ,6,0,0.,24.0,0.,24.0
1981-08-29 00:29:08.560 ,5,1,0.,24.0,0.,24.0
1981-08-29 00:29:32.560 ,5,0,0.,24.0,0.,24.0
1981-08-29 00:29:56.560 ,4,1,0.,24.0,0.,24.0
1981-08-29 00:30:20.560 ,4,0,0.,24.0,0.,24.0
1981-08-29 00:30:44.560 ,3,1,0.,24.0,0.,24.0
1981-08-29 00:31:08.560 ,3,0,0.,24.0,0.,24.0
1981-08-29 00:31:32.560 ,2,1,0.,24.0,0.,24.0
1981-08-29 00:31:56.560 ,2,0,0.,24.0,0.,24.0
1981-08-29 00:32:20.560 ,1,1,0.,24.0,0.,24.0
1981-08-29 00:32:44.560 ,1,0,0.,24.0,0.,24.0
1981-08-29 00:33:08.560 ,0,1,0.,24.0,0.,24.0
1981-08-29 00:33:32.560 ,0,0,0.,24.0,0.,24.0
1981-08-29 00:33:56.560 ,0,1,0.,24.0,0.,24.0
1981-08-29 00:34:20.560 ,0,0,0.,24.0,0.,24.0
1981-08-29 00:34:44.560 ,1,1,0.,24.0,0.,24.0
1981-08-29 00:35:08.560 ,1,0,0.,24.0,0.,24.0
1981-08-29 00:35:32.560 ,2,1,0.,24.0,0.,24.0
1981-08-29 00:35:56.560 ,2,0,0.,24.0,0.,24.0
1981-08-29 00:36:20.560 ,3,1,0.,24.0,0.,24.0
1981-08-29 00:36:44.560 ,3,0,0.,24.0,0.,24.0
1981-08-29 00:37:08.560 ,4,1,0.,24.0,0.,24.0
1981-08-29 00:37:32.560 ,4,0,0.,24.0,0.,24.0
1981-08-29 00:37:56.560 ,5,1,0.,24.0,0.,24.0
1981-08-29 00:38:20.560 ,5,0,0.,24.0,0.,24.0
1981-08-29 00:38:44.560 ,6,1,0.,24.0,0.,24.0
1981-08-29 00:39:08.560 ,6,0,0.,24.0,0.,24.0
1981-08-29 00:39:32.560 ,7,1,0.,24.0,0.,24.0
1981-08-29 00:39:56.560 ,7,0,0.,24.0,0.,24.0
1981-08-29 00:40:20.560 ,7,1,0.,24.0,0.,24.0
1981-08-29 00:40:44.560 ,6,1,0.,24.0,0.,24.0
1981-08-29 00:41:08.560 ,5,1,0.,24.0,0.,24.0
1981-08-29 00:41:32.560 ,4,1,0.,24.0,0.,24.0
1981-08-29 00:41:56.560 ,3,1,0.,24.0,0.,24.0
1981-08-29 00:42:20.560 ,2,1,0.,24.0,0.,24.0
1981-08-29 00:42:44.560 ,1,1,0.,24.0,0.,24.0
1981-08-29 00:43:08.560 ,0,1,0.,24.0,0.,24.0
1981-08-29 00:43:32.560 ,0,1,0.,24.0,0.,24.0
1981-08-29 00:43:56.560 ,1,1,0.,24.0,0.,24.0
1981-08-29 00:44:20.560 ,2,1,0.,24.0,0.,24.0
1981-08-29 00:44:44.560 ,3,1,0.,24.0,0.,24.0
1981-08-29 00:45:08.560 ,4,1,0.,24.0,0.,24.0
1981-08-29 00:45:32.560 ,5,1,0.,24.0,0.,24.0
1981-08-29 00:45:56.560 ,6,1,0.,24.0,0.,24.0
1981-08-29 00:46:20.560 ,7,1,0.,24.0,0.,24.0
1981-08-29 00:46:44.560 ,7,1,0.,24.0,0.,24.0
1981-08-29 00:47:08.560 ,7,0,0.,24.0,0.,24.0
1981-08-29 00:47:32.560 ,6,1,0.,24.0,0.,24.0
1981-08-29 00:47:56.560 ,6,0,0.,24.0,0.,24.0
1981-08-29 00:48:20.560 ,5,1,0.,24.0,0.,24.0
1981-08-29 00:48:44.560 ,5,0,0.,24.0,0.,24.0
1981-08-29 00:49:08.560 ,4,1,0.,24.0,0.,24.0
1981-08-29 00:49:32.560 ,4,0,0.,24.0,0.,24.0
1981-08-29 00:49:56.560 ,3,1,0.,24.0,0.,24.0
1981-08-29 00:50:20.560 ,3,0,0.,24.0,0.,24.0
1981-08-29 00:50:44.560 ,2,1,0.,24.0,0.,24.0
1981-08-29 00:51:08.560 ,2,0,0.,24.0,0.,24.0
1981-08-29 00:51:32.560 ,1,1,0.,24.0,0.,24.0
1981-08-29 00:51:56.560 ,1,0,0.,24.0,0.,24.0
1981-08-29 00:52:20.560 ,0,1,0.,24.0,0.,24.0
1981-08-29 00:52:44.560 ,0,0,0.,24.0,0.,24.0
1981-08-29 00:53:08.560 ,0,1,0.,24.0,0.,24.0
1981-08-29 00:53:32.560 ,0,0,0.,24.0,0.,24.0
1981-08-29 00:53:56.560 ,1,1,0.,24.0,0.,24.0
1981-08-29 00:54:20.560 ,0,0,,0,,0
1981-08-29 00:54:22.960 ,0,0,,0,,0
1981-08-29 00:54:23.560 ,0,0,0.,24.0,0.,24.0
1981-08-29 00:54:44.560 ,2,1,0.,24.0,0.,24.0
1981-08-29 00:55:08.560 ,2,0,0.,24.0,0.,24.0
1981-08-29 00:55:32.560 ,3,1,0.,24.0,0.,24.0
1981-08-29 00:55:56.560 ,3,0,0.,24.0,0.,24.0
1981-08-29 00:56:20.560 ,4,1,0.,24.0,0.,24.0
1981-08-29 00:56:44.560 ,4,0,0.,24.0,0.,24.0
1981-08-29 00:57:08.560 ,5,1,0.,24.0,0.,24.0
1981-08-29 00:57:32.560 ,5,0,0.,24.0,0.,24.0
1981-08-29 00:57:56.560 ,6,1,0.,24.0,0.,24.0
1981-08-29 00:58:20.560 ,6,0,0.,24.0,0.,24.0
1981-08-29 00:58:44.560 ,7,1,0.,24.0,0.,24.0
1981-08-29 00:59:08.560 ,7,0,0.,24.0,0.,24.0
1981-08-29 00:59:32.560 ,7,1,0.,24.0,0.,24.0
1981-08-29 00:59:56.560 ,6,1,0.,24.0,0.,24.0
1981-08-29 01:00:20.560 ,5,1,0.,24.0,0.,24.0
1981-08-29 01:00:44.560 ,4,1,0.,24.0,0.,24.0
1981-08-29 01:01:08.560 ,3,1,0.,24.0,0.,24.0
1981-08-29 01:01:32.560 ,2,1,0.,24.0,0.,24.0
1981-08-29 01:01:56.560 ,1,1,0.,24.0,0.,24.0
1981-08-29 01:02:20.560 ,0,1,0.,24.0,0.,24.0
1981-08-29 01:02:44.560 ,0,1,0.,24.0,0.,24.0
1981-08-29 01:03:08.560 ,1,1,0.,24.0,0.,24.0
1981-08-29 01:03:32.560 ,2,1,0.,24.0,0.,24.0
1981-08-29 01:03:56.560 ,3,1,0.,24.0,0.,24.0
1981-08-29 01:04:20.560 ,4,1,0.,24.0,0.,24.0
1981-08-29 01:04:44.560 ,5,1,0.,24.0,0.,24.0
1981-08-29 01:05:08.560 ,6,1,0.,24.0,0.,24.0
1981-08-29 01:05:32.560 ,7,1,0.,24.0,0.,24.0
1981-08-29 01:05:56.560 ,7,1,0.,24.0,0.,24.0
1981-08-29 01:06:20.560 ,7,0,0.,24.0,0.,24.0
1981-08-29 01:06:44.560 ,6,1,0.,24.0,0.,24.0
1981-08-29 01:07:08.560 ,6,0,0.,24.0,0.,24.0
1981-08-29 01:07:32.560 ,5,1,0.,24.0,0.,24.0
1981-08-29 01:07:56.560 ,5,0,0.,24.0,0.,24.0
1981-08-29 01:08:20.560 ,4,1,0.,24.0,0.,24.0
1981-08-29 01:08:44.560 ,4,0,0.,24.0,0.,24.0
1981-08-29 01:09:08.560 ,3,1,0.,24.0,0.,24.0
1981-08-29 01:09:32.560 ,3,0,0.,24.0,0.,24.0
1981-08-29 01:09:56.560 ,2,1,0.,24.0,0.,24.0
1981-08-29 01:10:20.560 ,2,0,0.,24.0,0.,24.0
1981-08-29 01:10:44.560 ,1,1,0.,24.0,0.,24.0
1981-08-29 01:11:08.560 ,1,0,0.,24.0,0.,24.0
1981-08-29 01:11:32.560 ,0,1,0.,24.0,0.,24.0
1981-08-29 01:11:56.560 ,0,0,0.,24.0,0.,24.0
1981-08-29 01:12:20.560 ,0,1,0.,24.0,0.,24.0
1981-08-29 01:12:44.560 ,0,0,0.,24.0,0.,24.0
1981-08-29 01:13:08.560 ,1,1,0.,24.0,0.,24.0
1981-08-29 01:13:32.560 ,1,0,0.,24.0,0.,24.0
1981-08-29 01:13:56.560 ,2,1,0.,24.0,0.,24.0
1981-08-29 01:14:20.560 ,2,0,0.,24.0,0.,24.0
1981-08-29 01:14:44.560 ,3,1,0.,24.0,0.,24.0
1981-08-29 01:15:08.560 ,3,0,0.,24.0,0.,24.0
1981-08-29 01:15:32.560 ,4,1,0.,24.0,0.,24.0
1981-08-29 01:15:56.560 ,4,0,0.,24.0,0.,24.0
1981-08-29 01:16:20.560 ,5,1,0.,24.0,0.,24.0
1981-08-29 01:16:44.560 ,5,0,0.,24.0,0.,24.0
1981-08-29 01:17:08.560 ,6,1,0.,24.0,0.,24.0
1981-08-29 01:17:32.560 ,6,0,0.,24.0,0.,24.0
1981-08-29 01:17:56.560 ,7,1,0.,24.0,0.,24.0
1981-08-29 01:18:20.560 ,7,0,0.,24.0,0.,24.0
1981-08-29 01:18:44.560 ,7,1,0.,24.0,0.,24.0
1981-08-29 01:19:08.560 ,6,1,0.,24.0,0.,24.0
1981-08-29 01:19:32.560 ,5,1,0.,24.0,0.,24.0
1981-08-29 01:19:56.560 ,4,1,0.,24.0,0.,24.0
1981-08-29 01:20:20.560 ,3,1,0.,24.0,0.,24.0
1981-08-29 01:20:44.560 ,2,1,0.,24.0,0.,24.0
1981-08-29 01:21:08.560 ,1,1,0.,24.0,0.,24.0
1981-08-29 01:21:32.560 ,0,1,0.,24.0,0.,24.0
1981-08-29 01:21:56.560 ,0,1,0.,24.0,0.,24.0
1981-08-29 01:22:20.560 ,1,1,0.,24.0,0.,24.0
1981-08-29 01:22:44.560 ,2,1,0.,24.0,0.,24.0
1981-08-29 01:23:08.560 ,3,1,0.,24.0,0.,24.0
1981-08-29 01:23:32.560 ,4,1,0.,24.0,0.,24.0
1981-08-29 01:23:56.560 ,5,1,0.,24.0,0.,24.0
1981-08-29 01:24:20.560 ,6,1,0.,24.0,0.,24.0
1981-08-29 01:24:44.560 ,7,1,0.,24.0,0.,24.0
1981-08-29 01:25:08.560 ,7,1,0.,24.0,0.,24.0
1981-08-29 01:25:32.560 ,7,0,0.,24.0,0.,24.0
1981-08-29 01:25:56.560 ,6,1,0.,24.0,0.,24.0
1981-08-29 01:26:20.560 ,6,0,0.,24.0,0.,24.0
1981-08-29 01:26:44.560 ,5,1,0.,24.0,0.,24.0
1981-08-29 01:27:08.560 ,5,0,0.,24.0,0.,24.0
1981-08-29 01:27:32.560 ,4,1,0.,24.0,0.,24.0
1981-08-29 01:27:56.560 ,4,0,0.,24.0,0.,24.0
1981-08-29 01:28:20.560 ,3,1,0.,24.0,0.,24.0
1981-08-29 01:28:44.560 ,3,0,0.,24.0,0.,24.0
1981-08-29 01:29:08.560 ,2,1,0.,24.0,0.,24.0
1981-08-29 01:29:32.560 ,2,0,0.,24.0,0.,24.0
1981-08-29 01:29:56.560 ,1,1,0.,24.0,0.,24.0
1981-08-29 01:30:20.560 ,1,0,0.,24.0,0.,24.0
1981-08-29 01:30:44.560 ,0,1,0.,24.0,0.,24.0
1981-08-29 01:31:08.560 ,0,0,0.,24.0,0.,24.0
1981-08-29 01:31:32.560 ,0,1,0.,24.0,0.,24.0
1981-08-29 01:31:56.560 ,0,0,0.,24.0,0.,24.0
1981-08-29 01:32:20.560 ,1,1,0.,24.0,0.,24.0
1981-08-29 01:32:44.560 ,1,0,0.,24.0,0.,24.0
1981-08-29 01:33:08.560 ,2,1,0.,24.0,0.,24.0
1981-08-29 01:33:32.560 ,2,0,0.,24.0,0.,24.0
1981-08-29 01:33:56.560 ,3,1,0.,24.0,0.,24.0
1981-08-29 01:34:20.560 ,3,0,0.,24.0,0.,24.0
1981-08-29 01:34:44.560 ,4,1,0.,24.0,0.,24.0
1981-08-29 01:35:08.560 ,4,0,0.,24.0,0.,24.0
1981-08-29 01:35:32.560 ,5,1,0.,24.0,0.,24.0
1981-08-29 01:35:56.560 ,5,0,0.,24.0,0.,24.0
1981-08-29 01:36:20.560 ,6,1,0.,24.0,0.,24.0
1981-08-29 01:36:44.560 ,6,0,0.,24.0,0.,24.0
1981-08-29 01:37:08.560 ,7,1,0.,24.0,0.,24.0
1981-08-29 01:37:32.560 ,7,0,0.,24.0,0.,24.0
1981-08-29 01:37:56.560 ,7,1,0.,24.0,0.,24.0
1981-08-29 01:38:20.560 ,6,1,0.,24.0,0.,24.0
1981-08-29 01:38:44.560 ,5,1,0.,24.0,0.,24.0
1981-08-29 01:39:08.560 ,4,1,0.,24.0,0.,24.0
1981-08-29 01:39:32.560 ,3,1,0.,24.0,0.,24.0
1981-08-29 01:39:56.560 ,2,1,0.,24.0,0.,24.0
1981-08-29 01:40:20.560 ,1,1,0.,24.0,0.,24.0
1981-08-29 01:40:44.560 ,0,1,0.,24.0,0.,24.0
1981-08-29 01:41:08.560 ,0,1,0.,24.0,0.,24.0
1981-08-29 01:41:32.560 ,1,1,0.,24.0,0.,24.0
1981-08-29 01:41:56.560 ,2,1,0.,24.0,0.,24.0
1981-08-29 01:42:20.560 ,3,1,0.,24.0,0.,24.0
1981-08-29 01:42:44.560 ,4,1,0.,24.0,0.,24.0
1981-08-29 01:43:08.560 ,5,1,0.,24.0,0.,24.0
1981-08-29 01:43:32.560 ,6,1,0.,24.0,0.,24.0
1981-08-29 01:43:56.560 ,7,1,0.,24.0,0.,24.0
1981-08-29 01:44:20.560 ,7,1,0.,24.0,0.,24.0
1981-08-29 01:44:44.560 ,7,0,0.,24.0,0.,24.0
1981-08-29 01:45:08.560 ,6,1,0.,24.0,0.,24.0
1981-08-29 01:45:32.560 ,6,0,0.,24.0,0.,24.0
1981-08-29 01:45:56.560 ,5,1,0.,24.0,0.,24.0
1981-08-29 01:46:20.560 ,5,0,0.,24.0,0.,24.0
1981-08-29 01:46:44.560 ,4,1,0.,24.0,0.,24.0
1981-08-29 01:47:08.560 ,4,0,0.,24.0,0.,24.0
1981-08-29 01:47:32.560 ,3,1,0.,24.0,0.,24.0
1981-08-29 01:47:56.560 ,3,0,0.,24.0,0.,24.0
1981-08-29 01:48:20.560 ,2,1,0.,24.0,0.,24.0
1981-08-29 01:48:44.560 ,2,0,0.,24.0,0.,24.0
1981-08-29 01:49:08.560 ,1,1,0.,24.0,0.,24.0
1981-08-29 01:49:32.560 ,1,0,0.,24.0,0.,24.0
1981-08-29 01:49:56.560 ,0,1,0.,24.0,0.,24.0
1981-08-29 01:50:20.560 ,0,0,0.,24.0,0.,24.0
1981-08-29 01:50:44.560 ,0,1,0.,24.0,0.,24.0
1981-08-29 01:51:08.560 ,0,0,0.,24.0,0.,24.0
1981-08-29 01:51:32.560 ,1,1,0.,24.0,0.,24.0
1981-08-29 01:51:56.560 ,1,0,0.,24.0,0.,24.0
1981-08-29 01:52:20.560 ,2,1,0.,24.0,0.,24.0
1981-08-29 01:52:44.560 ,2,0,0.,24.0,0.,24.0
1981-08-29 01:53:08.560 ,3,1,0.,24.0,0.,24.0
1981-08-29 01:53:32.560 ,3,0,0.,24.0,0.,24.0
1981-08-29 01:53:56.560 ,4,1,0.,24.0,0.,24.0
1981-08-29 01:54:20.560 ,4,0,0.,24.0,0.,24.0
1981-08-29 01:54:44.560 ,5,1,0.,24.0,0.,24.0
1981-08-29 01:55:08.560 ,5,0,0.,24.0,0.,24.0
1981-08-29 01:55:32.560 ,6,1,0.,24.0,0.,24.0
1981-08-29 01:55:56.560 ,6,0,0.,24.0,0.,24.0
1981-08-29 01:56:20.560 ,7,1,0.,24.0,0.,24.0
1981-08-29 01:56:44.560 ,7,0,0.,24.0,0.,24.0
1981-08-29 01:57:08.560 ,7,1,0.,24.0,0.,24.0
1981-08-29 01:57:32.560 ,6,1,0.,24.0,0.,24.0
1981-08-29 01:57:56.560 ,5,1,0.,24.0,0.,24.0
1981-08-29 01:58:20.560 ,4,1,0.,24.0,0.,24.0
1981-08-29 01:58:44.560 ,3,1,0.,24.0,0.,24.0
1981-08-29 01:59:08.560 ,2,1,0.,24.0,0.,24.0
1981-08-29 01:59:32.560 ,1,1,0.,24.0,0.,24.0
1981-08-29 01:59:56.560 ,0,1,0.,24.0,0.,24.0
1981-08-29 02:00:20.560 ,0,1,0.,24.0,0.,24.0
1981-08-29 02:00:44.560 ,1,1,0.,24.0,0.,24.0
1981-08-29 02:01:08.560 ,2,1,0.,24.0,0.,24.0
1981-08-29 02:01:32.560 ,3,1,0.,24.0,0.,24.0
1981-08-29 02:01:56.560 ,4,1,0.,24.0,0.,24.0
1981-08-29 02:02:20.560 ,5,1,0.,24.0,0.,24.0
1981-08-29 02:02:44.560 ,6,1,0.,24.0,0.,24.0
1981-08-29 02:03:08.560 ,7,1,0.,24.0,0.,24.0
1981-08-29 02:03:32.560 ,7,1,0.,24.0,0.,24.0
1981-08-29 02:03:56.560 ,7,0,0.,24.0,0.,24.0
1981-08-29 02:04:20.560 ,6,1,0.,24.0,0.,24.0
1981-08-29 02:04:44.560 ,6,0,0.,24.0,0.,24.0
1981-08-29 02:05:08.560 ,5,1,0.,24.0,0.,24.0
1981-08-29 02:05:32.560 ,5,0,0.,24.0,0.,24.0
1981-08-29 02:05:56.560 ,4,1,0.,24.0,0.,24.0
1981-08-29 02:06:20.560 ,4,0,0.,24.0,0.,24.0
1981-08-29 02:06:44.560 ,3,1,0.,24.0,0.,24.0
1981-08-29 02:07:08.560 ,3,0,0.,24.0,0.,24.0
1981-08-29 02:07:32.560 ,2,1,0.,24.0,0.,24.0
1981-08-29 02:07:56.560 ,2,0,0.,24.0,0.,24.0
1981-08-29 02:08:20.560 ,1,1,0.,24.0,0.,24.0
1981-08-29 02:08:44.560 ,1,0,0.,24.0,0.,24.0
1981-08-29 02:09:08.560 ,0,1,0.,24.0,0.,24.0
1981-08-29 02:09:32.560 ,0,0,0.,24.0,0.,24.0
1981-08-29 02:09:56.560 ,0,1,0.,24.0,0.,24.0
1981-08-29 02:10:20.560 ,0,0,0.,24.0,0.,24.0
1981-08-29 02:10:44.560 ,1,1,0.,24.0,0.,24.0
1981-08-29 02:11:08.560 ,1,0,0.,24.0,0.,24.0
1981-08-29 02:11:32.560 ,2,1,0.,24.0,0.,24.0
1981-08-29 02:11:56.560 ,2,0,0.,24.0,0.,24.0
1981-08-29 02:12:20.560 ,3,1,0.,24.0,0.,24.0
1981-08-29 02:12:44.560 ,3,0,0.,24.0,0.,24.0
1981-08-29 02:13:08.560 ,4,1,0.,24.0,0.,24.0
1981-08-29 02:13:32.560 ,4,0,0.,24.0,0.,24.0
1981-08-29 02:13:56.560 ,5,1,0.,24.0,0.,24.0
1981-08-29 02:14:20.560 ,5,0,0.,24.0,0.,24.0
1981-08-29 02:14:44.560 ,6,1,0.,24.0,0.,24.0
1981-08-29 02:15:08.560 ,6,0,0.,24.0,0.,24.0
1981-08-29 02:15:32.560 ,7,1,0.,24.0,0.,24.0
1981-08-29 02:15:56.560 ,7,0,0.,24.0,0.,24.0
1981-08-29 02:16:20.560 ,7,1,0.,24.0,0.,24.0
1981-08-29 02:16:44.560 ,6,1,0.,24.0,0.,24.0
1981-08-29 02:17:08.560 ,5,1,0.,24.0,0.,24.0
1981-08-29 02:17:32.560 ,4,1,0.,24.0,0.,24.0
1981-08-29 02:17:56.560 ,3,1,0.,24.0,0.,24.0
1981-08-29 02:18:20.560 ,2,1,0.,24.0,0.,24.0
1981-08-29 02:18:44.560 ,1,1,0.,24.0,0.,24.0
1981-08-29 02:19:08.560 ,0,1,1.,24.0,0.,24.0
1981-08-29 02:19:32.560 ,0,1,0.,24.0,0.,24.0
1981-08-29 02:19:56.560 ,1,1,0.,24.0,0.,24.0
1981-08-29 02:20:20.560 ,2,1,0.,24.0,0.,24.0
1981-08-29 02:20:44.560 ,3,1,0.,24.0,0.,24.0
1981-08-29 02:21:08.560 ,4,1,0.,24.0,0.,24.0
1981-08-29 02:21:32.560 ,5,1,0.,24.0,0.,24.0
1981-08-29 02:21:56.560 ,6,1,0.,24.0,0.,24.0
1981-08-29 02:22:20.560 ,7,1,0.,24.0,0.,24.0
1981-08-29 02:22:44.560 ,7,1,0.,24.0,0.,24.0
1981-08-29 02:23:08.560 ,7,0,0.,24.0,0.,24.0
1981-08-29 02:23:32.560 ,6,1,0.,24.0,0.,24.0
1981-08-29 02:23:56.560 ,6,0,0.,24.0,0.,24.0
1981-08-29 02:24:20.560 ,5,1,0.,24.0,0.,24.0
1981-08-29 02:24:44.560 ,5,0,0.,24.0,0.,24.0
1981-08-29 02:25:08.560 ,4,1,0.,24.0,0.,24.0
1981-08-29 02:25:32.560 ,4,0,0.,24.0,0.,24.0
1981-08-29 02:25:56.560 ,3,1,0.,24.0,0.,24.0
1981-08-29 02:26:20.560 ,3,0,0.,24.0,0.,24.0
1981-08-29 02:26:44.560 ,2,1,0.,24.0,0.,24.0
1981-08-29 02:27:08.560 ,2,0,0.,24.0,0.,24.0
1981-08-29 02:27:32.560 ,1,1,0.,24.0,0.,24.0
1981-08-29 02:27:56.560 ,1,0,0.,24.0,0.,24.0
1981-08-29 02:28:20.560 ,0,1,0.,24.0,0.,24.0
1981-08-29 02:28:44.560 ,0,0,0.,24.0,0.,24.0
1981-08-29 02:29:08.560 ,0,1,0.,24.0,0.,24.0
1981-08-29 02:29:32.560 ,0,0,0.,24.0,0.,24.0
1981-08-29 02:29:56.560 ,1,1,0.,24.0,0.,24.0
1981-08-29 02:30:20.560 ,1,0,0.,24.0,0.,24.0
1981-08-29 02:30:44.560 ,2,1,0.,24.0,0.,24.0
1981-08-29 02:31:08.560 ,2,0,0.,24.0,0.,24.0
1981-08-29 02:31:32.560 ,3,1,0.,24.0,0.,24.0
1981-08-29 02:31:56.560 ,3,0,0.,24.0,0.,24.0
1981-08-29 02:32:20.560 ,4,1,0.,24.0,0.,24.0
1981-08-29 02:32:44.560 ,4,0,0.,24.0,0.,24.0
1981-08-29 02:33:08.560 ,5,1,0.,24.0,0.,24.0
1981-08-29 02:33:32.560 ,5,0,0.,24.0,0.,24.0
1981-08-29 02:33:56.560 ,6,1,0.,24.0,0.,24.0
1981-08-29 02:34:20.560 ,6,0,0.,24.0,0.,24.0
1981-08-29 02:34:44.560 ,7,1,0.,24.0,0.,24.0
1981-08-29 02:35:08.560 ,7,0,0.,24.0,0.,24.0
1981-08-29 02:35:32.560 ,7,1,0.,24.0,0.,24.0
1981-08-29 02:35:56.560 ,6,1,0.,24.0,0.,24.0
1981-08-29 02:36:20.560 ,5,1,0.,24.0,0.,24.0
1981-08-29 02:36:44.560 ,4,1,0.,24.0,0.,24.0
1981-08-29 02:37:08.560 ,3,1,0.,24.0,0.,24.0
1981-08-29 02:37:32.560 ,2,1,0.,24.0,0.,24.0
1981-08-29 02:37:56.560 ,1,1,0.,24.0,0.,24.0
1981-08-29 02:38:20.560 ,0,1,0.,24.0,0.,24.0
1981-08-29 02:38:44.560 ,0,1,0.,24.0,0.,24.0
1981-08-29 02:39:08.560 ,1,1,0.,24.0,0.,24.0
1981-08-29 02:39:32.560 ,2,1,0.,24.0,0.,24.0
1981-08-29 02:39:56.560 ,3,1,0.,24.0,0.,24.0
1981-08-29 02:40:20.560 ,4,1,0.,24.0,0.,24.0
1981-08-29 02:40:44.560 ,5,1,0.,24.0,0.,24.0
1981-08-29 02:41:08.560 ,6,1,0.,24.0,0.,24.0
1981-08-29 02:41:32.560 ,7,1,0.,24.0,0.,24.0
1981-08-29 02:41:56.560 ,7,1,0.,24.0,0.,24.0
1981-08-29 02:42:20.560 ,7,0,0.,24.0,0.,24.0
1981-08-29 02:42:44.560 ,6,1,0.,24.0,0.,24.0
1981-08-29 02:43:08.560 ,6,0,0.,24.0,0.,24.0
1981-08-29 02:43:32.550 ,5,1,0.,24.0,0.,24.0
1981-08-29 02:43:56.550 ,5,0,0.,24.0,0.,24.0
1981-08-29 02:44:20.550 ,4,1,0.,24.0,0.,24.0
1981-08-29 02:44:44.550 ,4,0,0.,24.0,0.,24.0
1981-08-29 02:45:08.550 ,3,1,0.,24.0,0.,24.0
1981-08-29 02:45:32.550 ,3,0,0.,24.0,0.,24.0
1981-08-29 02:45:56.550 ,2,1,0.,24.0,0.,24.0
1981-08-29 02:46:20.550 ,2,0,0.,24.0,0.,24.0
1981-08-29 02:46:44.550 ,1,1,0.,24.0,0.,24.0
1981-08-29 02:47:08.550 ,1,0,0.,24.0,0.,24.0
1981-08-29 02:47:32.550 ,0,1,0.,24.0,0.,24.0
1981-08-29 02:47:56.550 ,0,0,0.,24.0,0.,24.0
1981-08-29 02:48:20.550 ,0,1,0.,24.0,0.,24.0
1981-08-29 02:48:44.550 ,0,0,0.,24.0,0.,24.0
1981-08-29 02:49:08.550 ,1,1,0.,24.0,0.,24.0
1981-08-29 02:49:32.550 ,1,0,0.,24.0,0.,24.0
1981-08-29 02:49:56.550 ,2,1,0.,24.0,0.,24.0
1981-08-29 02:50:20.550 ,2,0,0.,24.0,0.,24.0
1981-08-29 02:50:44.550 ,3,1,0.,24.0,0.,24.0
1981-08-29 02:51:08.550 ,3,0,0.,24.0,0.,24.0
1981-08-29 02:51:32.550 ,4,1,1.,24.0,0.,24.0
1981-08-29 02:51:56.550 ,4,0,0.,24.0,0.,24.0
1981-08-29 02:52:20.550 ,5,1,0.,24.0,0.,24.0
1981-08-29 02:52:44.550 ,5,0,0.,24.0,0.,24.0
1981-08-29 02:53:08.550 ,6,1,0.,24.0,0.,24.0
1981-08-29 02:53:32.550 ,6,0,0.,24.0,0.,24.0
1981-08-29 02:53:56.550 ,7,1,0.,24.0,0.,24.0
1981-08-29 02:54:20.550 ,7,0,0.,24.0,0.,24.0
1981-08-29 02:54:44.550 ,7,1,0.,24.0,0.,24.0
1981-08-29 02:55:08.550 ,6,1,0.,24.0,0.,24.0
1981-08-29 02:55:32.550 ,5,1,0.,24.0,0.,24.0
1981-08-29 02:55:56.550 ,4,1,0.,24.0,0.,24.0
1981-08-29 02:56:20.550 ,3,1,0.,24.0,0.,24.0
1981-08-29 02:56:44.550 ,2,1,0.,24.0,0.,24.0
1981-08-29 02:57:08.550 ,1,1,0.,24.0,0.,24.0
1981-08-29 02:57:32.550 ,0,1,0.,24.0,0.,24.0
1981-08-29 02:57:56.550 ,0,1,0.,24.0,0.,24.0
1981-08-29 02:58:20.550 ,1,1,0.,24.0,0.,24.0
1981-08-29 02:58:44.550 ,2,1,0.,24.0,0.,24.0
1981-08-29 02:59:08.550 ,3,1,0.,24.0,0.,24.0
1981-08-29 02:59:32.550 ,4,1,0.,24.0,0.,24.0
1981-08-29 02:59:56.550 ,5,1,0.,24.0,0.,24.0
1981-08-29 03:00:20.550 ,6,1,0.,24.0,0.,24.0
